[[{"header":{"parameterUnit":"m.s-1","parameterCategory":1,"la1":30.2991,"la2":30.254,"lo1":-89.0895,"lo2":-89.0444,"dy":0.0017,"dx":0.0017,"nx":28,"ny":28,"refTime":"2025-08-24T03:00:00:Z","depth":0,"parameterNumber":2,"parameterNumberName":"U-component_of_WINDS"},"data":[0,0,0,0,0,0,0,0,0,0,0,0,0,0,0,0,0,0,0,0,0,0,0,0,0,0,0,0,0,0,0,0,0,0,0,0,0,0,0,0,0,0,0,0,0,0,0,0,0,0,0,0,0,0,0,0,0,0,-3.486,-3.486,0,-3.4849,-3.4849,-3.4849,-3.4792,-3.4791,-3.4789,-3.4788,-3.4777,-3.4778,-3.4779,0,0,0,0,0,0,0,0,0,0,0,0,0,-3.4833,-3.4834,-3.486,-3.486,-3.486,-3.4849,-3.4849,-3.4849,-3.4792,-3.4791,-3.4789,-3.4787,-3.4777,-3.4778,-3.4779,0,0,0,0,0,0,0,0,0,0,0,0,0,-3.4836,-3.4834,-3.486,-3.4831,-3.4828,-3.4849,-3.4849,-3.4849,-3.4793,-3.4791,-3.4788,-3.4787,-3.4776,-3.4778,-3.4779,-3.4829,0,0,-3.4784,-3.4784,0,0,0,0,0,0,0,0,-3.4836,-3.4837,-3.4835,-3.4833,-3.483,-3.482,-3.4836,-3.4842,-3.4793,-3.4806,-3.4788,-3.4786,-3.4793,-3.4793,-3.4795,-3.4829,-3.4828,-3.4784,-3.4785,-3.4785,-3.4786,0,0,0,0,0,0,0,-3.4836,-3.4837,-3.4856,-3.4835,-3.4832,-3.4818,-3.4816,-3.4837,-3.4811,-3.4805,-3.48,-3.48,-3.4791,-3.4794,-3.4795,-3.4828,-3.4784,-3.4785,-3.4786,-3.4787,-3.4902,-3.4904,0,0,0,0,0,0,-3.484,-3.4837,-3.4856,-3.4856,-3.4828,-3.482,-3.4818,-3.4825,-3.4811,-3.4806,-3.4802,-3.4797,-3.4793,-3.4793,-3.4794,-3.4852,-3.4785,-3.4787,-3.4788,-3.49,-3.4903,-3.4905,0,0,0,0,0,0,-3.4839,-3.4842,-3.4857,-3.4845,-3.4846,-3.4823,-3.4831,-3.4826,-3.4829,-3.4808,-3.4804,-3.4809,-3.4791,-3.4792,-3.4821,-3.485,-3.4787,-3.4789,-3.4897,-3.4901,-3.4904,-3.4967,0,0,0,0,0,0,-3.4839,-3.4842,-3.4861,-3.4846,-3.4847,-3.4884,-3.4833,-3.4827,-3.4831,-3.4826,-3.4814,-3.4811,-3.4789,-3.4819,-3.4822,-3.4851,-3.479,-3.4894,-3.4899,-3.4903,-3.4962,-3.4972,-3.4981,0,0,0,0,0,-3.4838,-3.4879,-3.4862,-3.4864,-3.487,-3.4885,-3.4886,-3.4861,-3.4834,-3.4853,-3.484,-3.4811,-3.4847,-3.4822,-3.4826,-3.4856,-3.4892,-3.4898,-3.4902,-3.4958,-3.497,-3.498,0,0,0,0,0,0,-3.4897,-3.4876,-3.4857,-3.4894,-3.4892,-3.4876,-3.4898,-3.4874,-3.488,-3.4874,-3.4843,-3.4841,-3.4874,-3.4868,-3.4841,-3.4903,-3.4865,-3.4871,-3.4906,-3.4917,-3.4926,-3.4927,-3.4791,0,0,0,0,0,-3.4914,-3.4929,-3.491,-3.4945,-3.4945,-3.4922,-3.4928,-3.4909,-3.4905,-3.4904,-3.4893,-3.4891,-3.4901,-3.4909,-3.4918,-3.4961,-3.4958,-3.4984,-3.4993,-3.5,-3.5006,-3.5028,-3.504,-3.4921,-3.4921,-3.4921,0,0,-3.495,-3.4941,-3.4952,-3.4956,-3.4952,-3.4968,-3.4921,-3.494,-3.4952,-3.4907,-3.4933,-3.4925,-3.4921,-3.4957,-3.4973,-3.4953,-3.5038,-3.5007,-3.5013,-3.5014,-3.5035,-3.5046,-3.5056,-3.4924,-3.4924,-3.4923,0,0,-3.5023,-3.5018,-3.5046,-3.5043,-3.5038,-3.5023,-3.503,-3.5017,-3.501,-3.5037,-3.5003,-3.5017,-3.5036,-3.5034,-3.5036,-3.5111,-3.5084,-3.5114,-3.5162,-3.5185,-3.5194,-3.5202,-3.5228,-3.5238,-3.512,-3.512,-3.512,0,-3.5069,-3.5091,-3.5064,-3.5085,-3.5088,-3.5049,-3.5077,-3.5076,-3.5074,-3.5077,-3.5055,-3.5079,-3.5073,-3.5109,-3.5127,-3.513,-3.5137,-3.5115,-3.5195,-3.5203,-3.521,-3.5235,-3.5245,-3.5124,-3.5123,-3.5123,-3.5122,0,-3.5147,-3.5163,-3.5187,-3.5186,-3.5192,-3.5217,-3.5194,-3.5203,-3.5184,-3.5172,-3.5199,-3.5191,-3.5198,-3.5205,-3.5186,-3.5239,-3.5226,-3.52,-3.5161,-3.5225,-3.5248,-3.5257,-3.5129,-3.5127,-3.5126,-3.5125,0,0,-3.5255,-3.524,-3.5249,-3.5249,-3.5241,-3.5253,-3.5276,-3.5283,-3.5292,-3.5292,-3.5311,-3.5329,-3.5305,-3.5307,-3.5288,-3.5308,-3.5368,-3.5279,-3.5279,-3.5296,-3.5425,-3.5444,-3.5455,-3.5351,-3.5352,-3.5354,-3.5425,0,-3.5325,-3.5364,-3.5341,-3.5384,-3.5399,-3.5362,-3.5383,-3.538,-3.537,-3.5381,-3.5369,-3.5382,-3.5349,-3.535,-3.5369,-3.5357,-3.5393,-3.5351,-3.5368,-3.5369,-3.537,-3.5467,-3.5487,-3.5555,-3.5434,-3.5435,-3.5436,0,-3.5412,-3.5416,-3.546,-3.545,-3.5455,-3.5474,-3.5479,-3.549,-3.5487,-3.5478,-3.5481,-3.5457,-3.548,-3.5442,-3.5473,-3.5445,-3.5451,-3.5446,-3.5448,-3.5448,-3.5406,-3.5469,-3.5576,-3.5586,-3.545,-3.5449,-3.5448,0,-3.5486,-3.5503,-3.5532,-3.5533,-3.5521,-3.5536,-3.5532,-3.5526,-3.5532,-3.5537,-3.554,-3.5547,-3.5551,-3.5557,-3.5536,-3.5511,-3.557,-3.553,-3.5563,-3.5564,-3.5577,-3.5576,-3.5685,-3.5582,-3.5582,-3.5582,-3.5581,0,-3.5566,-3.5595,-3.5565,-3.5583,-3.5614,-3.5588,-3.5619,-3.5611,-3.5607,-3.5623,-3.5592,-3.5608,-3.558,-3.5592,-3.5576,-3.5605,-3.5607,-3.56,-3.5595,-3.5602,-3.5603,-3.5605,-3.56,-3.5584,-3.5584,-3.5583,-3.5583,0,-3.5654,-3.5636,-3.5665,-3.5652,-3.565,-3.5673,-3.5662,-3.5678,-3.5666,-3.5686,-3.569,-3.567,-3.5684,-3.5664,-3.5675,-3.5665,-3.5704,-3.5692,-3.5705,-3.5701,-3.5735,-3.5732,-3.5848,-3.5862,-3.5751,-3.5752,-3.5753,0,-3.5706,-3.5727,-3.5717,-3.5726,-3.5723,-3.5737,-3.5743,-3.5719,-3.5726,-3.5725,-3.5741,-3.5752,-3.5759,-3.5783,-3.577,-3.5779,-3.5767,-3.5807,-3.5768,-3.5775,-3.5767,-3.5766,-3.5768,-3.5815,-3.5816,-3.5817,-3.5818,0,-3.58,-3.579,-3.58,-3.5807,-3.5815,-3.5819,-3.5821,-3.583,-3.5804,-3.5814,-3.5827,-3.5833,-3.5845,-3.5857,-3.5862,-3.5859,-3.5834,-3.5831,-3.5839,-3.5846,-3.5852,-3.5849,-3.5726,-3.5828,-3.5827,-3.5826,-3.5826,-3.5825,-3.5871,-3.5888,-3.5884,-3.5896,-3.5895,-3.5898,-3.5912,-3.5902,-3.5913,-3.5921,-3.5906,-3.5924,-3.5921,-3.5926,-3.5925,-3.5938,-3.5921,-3.5933,-3.5935,-3.5938,-3.5943,-3.5851,-3.594,-3.5939,-3.5939,-3.5939,-3.5938,0,-3.5963,-3.5959,-3.597,-3.5974,-3.5984,-3.5961,-3.5962,-3.5972,-3.5987,-3.5987,-3.5995,-3.6011,-3.6022,-3.6011,-3.602,-3.6033,-3.6022,-3.6036,-3.6035,-3.6034,-3.5959,-3.5951,-3.6045,-3.6045,-3.6045,-3.6045,-3.6045,-3.6045,-3.6012,-3.604,-3.603,-3.6057,-3.6053,-3.607,-3.6072,-3.6075,-3.6074,-3.6094,-3.6103,-3.6096,-3.6091,-3.61,-3.6109,-3.6105,-3.611,-3.6128,-3.6121,-3.605,-3.604,-3.603,-3.6022,-3.6129,-3.613,-3.6195,-3.6195,-3.6196]},{"header":{"parameterUnit":"m.s-1","parameterCategory":1,"la1":30.2991,"la2":30.254,"lo1":-89.0895,"lo2":-89.0444,"dy":0.0017,"dx":0.0017,"nx":28,"ny":28,"refTime":"2025-08-24T03:00:00:Z","depth":0,"parameterNumber":3,"parameterNumberName":"V-component_of_WINDS"},"data":[0,0,0,0,0,0,0,0,0,0,0,0,0,0,0,0,0,0,0,0,0,0,0,0,0,0,0,0,0,0,0,0,0,0,0,0,0,0,0,0,0,0,0,0,0,0,0,0,0,0,0,0,0,0,0,0,0,0,-1.8109,-1.8109,0,-1.807,-1.807,-1.8069,-1.8013,-1.8012,-1.8011,-1.801,-1.7969,-1.7969,-1.7969,0,0,0,0,0,0,0,0,0,0,0,0,0,-1.8135,-1.8134,-1.8109,-1.8109,-1.8108,-1.807,-1.807,-1.8069,-1.8013,-1.8012,-1.8011,-1.8009,-1.7969,-1.7969,-1.7969,0,0,0,0,0,0,0,0,0,0,0,0,0,-1.8112,-1.8134,-1.8109,-1.8076,-1.8072,-1.807,-1.807,-1.8069,-1.8013,-1.8012,-1.801,-1.8009,-1.7969,-1.7969,-1.7969,-1.7997,0,0,-1.7968,-1.7968,0,0,0,0,0,0,0,0,-1.8114,-1.8111,-1.8081,-1.8078,-1.8074,-1.8045,-1.8064,-1.8045,-1.8014,-1.8036,-1.801,-1.8008,-1.7996,-1.7993,-1.7989,-1.7995,-1.7993,-1.7968,-1.7968,-1.7968,-1.7968,0,0,0,0,0,0,0,-1.8115,-1.8113,-1.8094,-1.8081,-1.8076,-1.8062,-1.8058,-1.806,-1.8024,-1.8034,-1.8029,-1.8026,-1.7993,-1.7989,-1.7988,-1.7992,-1.7968,-1.7968,-1.7968,-1.7968,-1.8019,-1.8021,0,0,0,0,0,0,-1.8122,-1.8115,-1.8095,-1.8093,-1.8091,-1.8063,-1.8058,-1.8056,-1.8024,-1.8018,-1.8027,-1.8023,-1.799,-1.7988,-1.7986,-1.8017,-1.7968,-1.7968,-1.7967,-1.8018,-1.802,-1.8021,0,0,0,0,0,0,-1.8123,-1.8121,-1.8097,-1.8102,-1.8098,-1.8064,-1.8062,-1.8056,-1.8052,-1.8019,-1.8012,-1.8029,-1.7989,-1.7986,-1.7994,-1.8014,-1.7967,-1.7967,-1.8016,-1.8018,-1.802,-1.8078,0,0,0,0,0,0,-1.8124,-1.8121,-1.8132,-1.8103,-1.8098,-1.8106,-1.8064,-1.8056,-1.8051,-1.8046,-1.802,-1.8014,-1.7988,-1.7995,-1.7994,-1.8013,-1.7967,-1.8014,-1.8017,-1.802,-1.8075,-1.8082,-1.8089,0,0,0,0,0,-1.8125,-1.8149,-1.8133,-1.813,-1.811,-1.8108,-1.8105,-1.8075,-1.8053,-1.8063,-1.8042,-1.8015,-1.8012,-1.7997,-1.7995,-1.8014,-1.8013,-1.8016,-1.8019,-1.8071,-1.8081,-1.8089,0,0,0,0,0,0,-1.8181,-1.8145,-1.8126,-1.8142,-1.8128,-1.8098,-1.811,-1.8086,-1.8077,-1.8073,-1.8035,-1.803,-1.8043,-1.8029,-1.8012,-1.8039,-1.8008,-1.8012,-1.8048,-1.8057,-1.8064,-1.8067,-1.7967,0,0,0,0,0,-1.8195,-1.8196,-1.8164,-1.8182,-1.8176,-1.8144,-1.8142,-1.812,-1.8104,-1.8098,-1.8077,-1.8063,-1.8059,-1.8057,-1.8051,-1.8072,-1.8066,-1.8085,-1.8092,-1.8098,-1.8101,-1.8112,-1.812,-1.8032,-1.8032,-1.8032,0,0,-1.8225,-1.8205,-1.8208,-1.8192,-1.8179,-1.8181,-1.814,-1.8143,-1.8144,-1.8098,-1.8105,-1.809,-1.8071,-1.8086,-1.8091,-1.8075,-1.8124,-1.8102,-1.8107,-1.8107,-1.8116,-1.8124,-1.8132,-1.8035,-1.8034,-1.8034,0,0,-1.8279,-1.8265,-1.8277,-1.8265,-1.8246,-1.8225,-1.8228,-1.8201,-1.8189,-1.8196,-1.8162,-1.8162,-1.8156,-1.8144,-1.8137,-1.8188,-1.8162,-1.8187,-1.8225,-1.8236,-1.8242,-1.8248,-1.8267,-1.8274,-1.819,-1.819,-1.8191,0,-1.8318,-1.832,-1.8287,-1.8293,-1.8287,-1.8246,-1.8259,-1.8249,-1.8229,-1.8226,-1.8207,-1.8199,-1.8183,-1.8195,-1.8208,-1.8203,-1.8206,-1.819,-1.8244,-1.825,-1.8255,-1.8272,-1.8279,-1.8194,-1.8193,-1.8193,-1.8193,0,-1.8369,-1.837,-1.8383,-1.8365,-1.8361,-1.837,-1.8339,-1.8338,-1.8317,-1.8298,-1.8305,-1.8285,-1.8275,-1.8276,-1.8254,-1.8284,-1.8275,-1.8251,-1.8219,-1.8267,-1.8282,-1.8289,-1.8198,-1.8197,-1.8196,-1.8195,0,0,-1.8458,-1.8422,-1.8427,-1.8419,-1.8395,-1.8395,-1.8403,-1.8393,-1.8394,-1.8381,-1.8386,-1.8382,-1.836,-1.8353,-1.833,-1.8339,-1.8381,-1.8313,-1.8312,-1.8327,-1.8413,-1.8432,-1.844,-1.8363,-1.8364,-1.8365,-1.8415,0,-1.8508,-1.8519,-1.849,-1.8509,-1.851,-1.8471,-1.8477,-1.8463,-1.8446,-1.8444,-1.8424,-1.8422,-1.8392,-1.8388,-1.8395,-1.8374,-1.8398,-1.837,-1.8368,-1.8368,-1.8375,-1.8448,-1.8467,-1.8515,-1.8421,-1.8422,-1.8422,0,-1.8568,-1.856,-1.8578,-1.8553,-1.8553,-1.8559,-1.8548,-1.8547,-1.853,-1.8516,-1.8508,-1.8482,-1.8487,-1.8456,-1.8463,-1.8445,-1.8443,-1.8432,-1.8433,-1.8432,-1.8399,-1.8449,-1.8529,-1.8537,-1.8431,-1.8431,-1.843,0,-1.8632,-1.8625,-1.8635,-1.8629,-1.86,-1.8606,-1.8594,-1.8575,-1.8572,-1.8562,-1.8559,-1.855,-1.8545,-1.8539,-1.8511,-1.8491,-1.8521,-1.8488,-1.851,-1.8511,-1.8519,-1.8519,-1.8601,-1.8517,-1.8517,-1.8516,-1.8516,0,-1.8692,-1.8705,-1.8664,-1.867,-1.8683,-1.865,-1.8664,-1.8648,-1.8632,-1.8635,-1.86,-1.8603,-1.8566,-1.8565,-1.8542,-1.8552,-1.855,-1.8539,-1.8533,-1.8543,-1.8544,-1.8541,-1.8537,-1.8518,-1.8518,-1.8518,-1.8517,0,-1.8766,-1.8738,-1.8747,-1.8719,-1.8712,-1.8724,-1.8699,-1.8704,-1.8684,-1.8688,-1.8687,-1.8656,-1.8653,-1.8624,-1.8614,-1.8599,-1.8617,-1.8605,-1.8623,-1.862,-1.8644,-1.8642,-1.8726,-1.8736,-1.8646,-1.8647,-1.8648,0,-1.8806,-1.8815,-1.8788,-1.8787,-1.8777,-1.8777,-1.8773,-1.874,-1.8738,-1.8719,-1.8726,-1.8721,-1.8714,-1.8711,-1.8688,-1.868,-1.8667,-1.8697,-1.8666,-1.8675,-1.8668,-1.8668,-1.8669,-1.8704,-1.8705,-1.8706,-1.8707,0,-1.888,-1.8866,-1.8862,-1.8853,-1.885,-1.8841,-1.8831,-1.8832,-1.8796,-1.8795,-1.8792,-1.8787,-1.8777,-1.8772,-1.8761,-1.8748,-1.8722,-1.8717,-1.8722,-1.8732,-1.8743,-1.8738,-1.8642,-1.8715,-1.8715,-1.8714,-1.8713,-1.8713,-1.8938,-1.8945,-1.8927,-1.8924,-1.8912,-1.8903,-1.8907,-1.8887,-1.8884,-1.8874,-1.8855,-1.8855,-1.8837,-1.8819,-1.8809,-1.8808,-1.8793,-1.88,-1.8801,-1.8804,-1.8809,-1.8743,-1.8806,-1.8806,-1.8805,-1.8805,-1.8805,0,-1.9011,-1.8998,-1.8995,-1.8981,-1.8979,-1.8955,-1.8942,-1.8941,-1.8942,-1.8928,-1.8923,-1.8919,-1.8914,-1.889,-1.8882,-1.8886,-1.8874,-1.8886,-1.8885,-1.8883,-1.8823,-1.882,-1.8896,-1.8896,-1.8896,-1.8896,-1.8896,-1.8896,-1.9048,-1.9058,-1.9043,-1.9047,-1.9033,-1.9033,-1.9028,-1.9019,-1.9008,-1.9006,-1.9002,-1.8986,-1.8969,-1.8959,-1.8954,-1.8947,-1.8946,-1.8961,-1.8951,-1.8896,-1.8887,-1.8879,-1.8875,-1.8961,-1.8961,-1.901,-1.901,-1.9011]}]]